TimeEST,TemperatureF,Dew PointF,Humidity,Sea Level PressureIn,VisibilityMPH,Wind Direction,Wind SpeedMPH,Gust SpeedMPH,PrecipitationIn,Events,Conditions,WindDirDegrees,DateUTC
12:53 AM,52.0,37.9,59,30.30,10.0,Calm,Calm,-,N/A,,Mostly Cloudy,0,2013-01-23 05:53:00
1:53 AM,51.1,37.9,61,30.30,10.0,North,3.5,-,N/A,,Mostly Cloudy,360,2013-01-23 06:53:00
2:53 AM,48.9,39.0,69,30.30,10.0,North,3.5,-,N/A,,Scattered Clouds,360,2013-01-23 07:53:00
3:53 AM,50.0,39.0,66,30.31,10.0,North,4.6,-,N/A,,Partly Cloudy,10,2013-01-23 08:53:00
4:53 AM,50.0,35.1,57,30.32,10.0,NNE,5.8,-,N/A,,Partly Cloudy,20,2013-01-23 09:53:00
5:53 AM,50.0,30.0,46,30.33,10.0,NNE,10.4,-,N/A,,Partly Cloudy,30,2013-01-23 10:53:00
6:53 AM,48.0,30.9,52,30.35,10.0,NE,3.5,-,N/A,,Partly Cloudy,40,2013-01-23 11:53:00
7:53 AM,48.0,30.9,52,30.37,10.0,NE,5.8,-,N/A,,Partly Cloudy,40,2013-01-23 12:53:00
8:53 AM,52.0,30.0,43,30.38,10.0,NE,5.8,-,N/A,,Partly Cloudy,50,2013-01-23 13:53:00
9:53 AM,57.9,30.0,35,30.39,10.0,ENE,5.8,-,N/A,,Partly Cloudy,60,2013-01-23 14:53:00
10:53 AM,62.1,28.9,29,30.39,10.0,NE,6.9,-,N/A,,Partly Cloudy,40,2013-01-23 15:53:00
11:53 AM,66.0,30.0,26,30.37,10.0,North,4.6,-,N/A,,Partly Cloudy,360,2013-01-23 16:53:00
12:53 PM,68.0,32.0,26,30.33,10.0,North,10.4,-,N/A,,Partly Cloudy,350,2013-01-23 17:53:00
1:53 PM,68.0,32.0,26,30.30,10.0,North,8.1,17.3,N/A,,Partly Cloudy,360,2013-01-23 18:53:00
2:53 PM,69.1,30.9,24,30.30,10.0,NNE,6.9,-,N/A,,Clear,20,2013-01-23 19:53:00
3:53 PM,70.0,30.9,24,30.29,10.0,North,6.9,-,N/A,,Partly Cloudy,350,2013-01-23 20:53:00
4:53 PM,69.1,30.0,23,30.29,10.0,North,5.8,-,N/A,,Partly Cloudy,350,2013-01-23 21:53:00
5:53 PM,64.0,37.0,37,30.31,10.0,NNW,8.1,-,N/A,,Partly Cloudy,330,2013-01-23 22:53:00
6:53 PM,59.0,39.0,48,30.32,10.0,North,8.1,-,N/A,,Partly Cloudy,350,2013-01-23 23:53:00
7:53 PM,57.0,39.9,53,30.33,10.0,North,6.9,-,N/A,,Clear,350,2013-01-24 00:53:00
8:53 PM,55.9,41.0,57,30.34,10.0,NNE,3.5,-,N/A,,Clear,20,2013-01-24 01:53:00
9:53 PM,55.0,41.0,59,30.33,10.0,Calm,Calm,-,N/A,,Clear,0,2013-01-24 02:53:00
10:53 PM,54.0,41.0,62,30.34,10.0,Calm,Calm,-,N/A,,Clear,0,2013-01-24 03:53:00
11:53 PM,53.1,41.0,64,30.33,10.0,Calm,Calm,-,N/A,,Clear,0,2013-01-24 04:53:00